Location: Observatoire
(46.1952°N, 5.3391°E)
Time: 14:39:02
(UTC+01:00)

Tiros 1 - Pass Details

Date: 23 February 2026
Orbit: 618 x 650 km, 48.4° (Epoch: 13 March)

Event Time Altitude Azimuth Distance (km) Brightness Sun altitude
Rises 06:04:52 0° 196° (SSW) 2,921 10.3 -15.2°
Reaches altitude 10° 06:07:54 10° 176° (S) 2,010 9.7 -14.7°
Maximum altitude 06:10:49 17° 137° (SE) 1,607 9.7 -14.2°
Drops below altitude 10° 06:13:45 10° 97° (E) 2,004 11.1 -13.7°
Sets 06:16:45 0° 77° (ENE) 2,908 12.2 -13.2°
